{"data":{"norad_id":43679,"intl_designator":"2018-084J","name":"STARS-AO","alt_names":[],"object_type":"PAYLOAD","status":"ACTIVE","operator":null,"country":"JPN","launch_date":"2018-10-29","launch_site_code":"TANSC","launch_vehicle":null,"mission":null,"orbit_class":"UNKNOWN","rcs_meters":null,"size_class":null,"mass_kg":null,"dimensions":null,"purposes":[],"wikipedia_slug":null,"has_3d_model":false,"image_url":null,"decayed_at":null,"tle_current":{"epoch":"2026-05-25T02:49:42.502656Z","epoch_age_seconds":60930,"freshness":"FRESH","line1":"1 43679U 18084J   26145.11785304  .00005532  00000+0  28575-3 0  9991","line2":"2 43679  98.0533 357.6696 0001045 202.0479 158.0707 15.16753900413974","mean_motion":15.167539,"eccentricity":0.0001045,"inclination_deg":98.0533,"raan_deg":357.6696,"arg_perigee_deg":202.0479,"mean_anomaly_deg":158.0707,"bstar":0.00028575,"rev_number":41397,"period_min":94.939594353441,"perigee_km":514.93859969093,"apogee_km":516.37940305522,"semimajor_km":6893.7960013731,"source":"CELESTRAK","updated_at":"2026-05-25T13:37:55.867463Z"}}}